Ocala, FL

2:59 PM EDT on May 28, 2017 (GMT -0400)
Ocala Regional-Taylor

Weather History for KOCF - November, 2013

Change the Weather History Date:

Friday, November 1, 2013

  Actual Average Record
Temperature  
Mean Temperature 74 °F -  
Max Temperature 84 °F 77 °F 89 °F (2015)
Min Temperature 64 °F 55 °F 42 °F (2014)
Cooling Degree Days 9    
Growing Degree Days 24 (Base 50)    
Moisture  
Dew Point 63 °F    
Average Humidity 71    
Maximum Humidity 88    
Minimum Humidity 48    
Precipitation  
Precipitation 0.00 in - - ()
Sea Level Pressure  
Sea Level Pressure 29.94 in    
Wind  
Wind Speed 5 mph (SSW)    
Max Wind Speed 18 mph    
Max Gust Speed 24 mph    
Visibility 10 miles    
Events      
Averages and records for this station are not official NWS values.
T = Trace of Precipitation, MM = Missing Value Source: NWS Daily Summary

Daily Weather History Graph

Daily Weather History Graph

Search for Another Location

Airport or City:

Trip Planner

Search our weather history database for the weather conditions in past years. The results will help you decide how hot, cold, wet, or windy it might be!

Date:

Astronomy

Nov. 01, 2013 Rise Set
Actual Time 7:41 AM EDT 6:42 PM EDT
Civil Twilight 7:17 AM EDT 7:07 PM EDT
Nautical Twilight 6:49 AM EDT 7:35 PM EDT
Astronomical Twilight 6:21 AM EDT 8:03 PM EDT
Moon 5:41 AM EDT (11/1) 5:28 PM EDT (11/1)
Length of Visible Light 11h 49m
Length of Day
11h 00m
Waning Crescent, 4% of the Moon is Illuminated
Nov 1
Waning Crescent
Nov 3
New
Nov 10
First Quarter
Nov 17
Full
Nov 25
Last Quarter

Hourly Weather History & Observations

Time (EDT) Temp. Heat Index Dew Point Humidity Pressure Visibility Wind Dir Wind Speed Gust Speed Precip Events Conditions
12:15 AM 66.2 °F - 57.2 °F 73% 30.02 in 10.0 mi Calm Calm - N/A   Partly Cloudy
12:35 AM 64.4 °F - 57.2 °F 77% 30.02 in 10.0 mi Calm Calm - N/A   Clear
12:55 AM 64.4 °F - 57.2 °F 77% 30.02 in 10.0 mi Calm Calm - N/A   Partly Cloudy
1:15 AM 66.2 °F - 57.2 °F 73% 30.01 in 10.0 mi Calm Calm - N/A   Scattered Clouds
1:35 AM 64.4 °F - 57.2 °F 77% 30.01 in 10.0 mi Calm Calm - N/A   Partly Cloudy
1:55 AM 64.4 °F - 57.2 °F 77% 30.00 in 10.0 mi Calm Calm - N/A   Clear
2:15 AM 64.4 °F - 57.2 °F 77% 30.00 in 10.0 mi SE 3.5 mph - N/A   Partly Cloudy
2:35 AM 66.2 °F - 57.2 °F 73% 29.99 in 10.0 mi Calm Calm - N/A   Partly Cloudy
2:55 AM 69.8 °F - 59.0 °F 68% 29.98 in 10.0 mi Calm Calm - N/A   Clear
3:15 AM 66.2 °F - 59.0 °F 78% 29.98 in 10.0 mi South 3.5 mph - N/A   Clear
3:35 AM 66.2 °F - 59.0 °F 78% 29.97 in 10.0 mi South 3.5 mph - N/A   Clear
3:55 AM 66.2 °F - 59.0 °F 78% 29.97 in 10.0 mi Calm Calm - N/A   Clear
4:15 AM 68.0 °F - 60.8 °F 78% 29.97 in 10.0 mi SSE 4.6 mph - N/A   Clear
4:35 AM 69.8 °F - 60.8 °F 73% 29.96 in 10.0 mi SSE 4.6 mph - N/A   Clear
4:55 AM 69.8 °F - 60.8 °F 73% 29.95 in 10.0 mi SSE 6.9 mph - N/A   Clear
5:15 AM 71.6 °F - 62.6 °F 73% 29.96 in 10.0 mi South 5.8 mph - N/A   Clear
5:35 AM 69.8 °F - 62.6 °F 78% 29.96 in 10.0 mi South 8.1 mph - N/A   Clear
5:55 AM 68.0 °F - 60.8 °F 78% 29.97 in 10.0 mi South 3.5 mph - N/A   Clear
6:15 AM 66.2 °F - 60.8 °F 83% 29.97 in 10.0 mi Calm Calm - N/A   Clear
6:35 AM 66.2 °F - 59.0 °F 78% 29.97 in 10.0 mi Calm Calm - N/A   Clear
6:50 AM 66.2 °F - 62.6 °F 88% 29.98 in 10.0 mi Calm Calm - N/A   Clear
7:50 AM 69.8 °F - 62.6 °F 78% 29.97 in 10.0 mi South 6.9 mph - N/A   Partly Cloudy
8:50 AM 71.6 °F - 62.6 °F 73% 29.98 in 10.0 mi South 9.2 mph - N/A   Scattered Clouds
9:50 AM 77.0 °F - 64.4 °F 65% 29.96 in 10.0 mi South 16.1 mph - N/A   Partly Cloudy
10:50 AM 80.6 °F 82.3 °F 64.4 °F 58% 29.95 in 10.0 mi South 18.4 mph - N/A   Partly Cloudy
11:50 AM 82.4 °F 83.9 °F 64.4 °F 54% 29.95 in 10.0 mi SW 12.7 mph - N/A   Clear
12:50 PM 84.2 °F 85.6 °F 64.4 °F 51% 29.93 in 10.0 mi SSW 13.8 mph 20.7 mph N/A   Clear
1:50 PM 84.2 °F 85.6 °F 64.4 °F 51% 29.91 in 10.0 mi WSW 13.8 mph - N/A   Scattered Clouds
2:50 PM 84.2 °F 85.0 °F 62.6 °F 48% 29.91 in 10.0 mi WSW 17.3 mph 24.2 mph N/A   Mostly Cloudy
3:50 PM 84.2 °F 85.6 °F 64.4 °F 51% 29.89 in 10.0 mi WSW 16.1 mph 20.7 mph N/A   Mostly Cloudy
4:50 PM 80.6 °F 82.7 °F 66.2 °F 61% 29.88 in 7.0 mi SW 11.5 mph 20.7 mph N/A   Mostly Cloudy
5:50 PM 78.8 °F - 66.2 °F 65% 29.88 in 10.0 mi SW 10.4 mph - N/A   Mostly Cloudy
6:50 PM 78.8 °F - 66.2 °F 65% 29.87 in 10.0 mi SSW 8.1 mph - N/A   Mostly Cloudy
7:55 PM 77.0 °F - 66.2 °F 69% 29.87 in 10.0 mi SSW 9.2 mph - N/A   Overcast
8:15 PM 77.0 °F - 66.2 °F 69% 29.88 in 10.0 mi SSW 8.1 mph - N/A   Scattered Clouds
8:35 PM 77.0 °F - 66.2 °F 69% 29.88 in 10.0 mi SSW 9.2 mph - N/A   Clear
8:55 PM 75.2 °F - 66.2 °F 73% 29.89 in 10.0 mi SSW 6.9 mph - N/A   Clear
9:15 PM 75.2 °F - 66.2 °F 73% 29.89 in 10.0 mi SSW 6.9 mph - N/A   Partly Cloudy
9:35 PM 75.2 °F - 64.4 °F 69% 29.89 in 10.0 mi South 5.8 mph - N/A   Partly Cloudy
9:55 PM 75.2 °F - 66.2 °F 73% 29.89 in 10.0 mi SSW 6.9 mph - N/A   Scattered Clouds
10:15 PM 75.2 °F - 66.2 °F 73% 29.89 in 10.0 mi South 6.9 mph - N/A   Mostly Cloudy
10:35 PM 75.2 °F - 66.2 °F 73% 29.90 in 10.0 mi SSW 8.1 mph - N/A   Mostly Cloudy
10:55 PM 75.2 °F - 66.2 °F 73% 29.89 in 10.0 mi South 11.5 mph - N/A   Scattered Clouds
11:15 PM 73.4 °F - 66.2 °F 78% 29.89 in 10.0 mi South 10.4 mph - N/A   Clear
11:35 PM 73.4 °F - 66.2 °F 78% 29.89 in 10.0 mi South 13.8 mph - N/A   Partly Cloudy
11:55 PM 75.2 °F - 66.2 °F 73% 29.90 in 10.0 mi South 12.7 mph - N/A   Clear